Погода в Тимофеевке

Россия / Приморский край     43°52′10″N   135°27′51″E
темп.,
°C
ветер,
м/с
пор.,
м/с
влажн.,
%
обл.,
%
осадки,
мм/ч
давл.,
гПа
погр.,
м
15 мая, сб
сб1501:00+8юз61086100 0.0 101493
04:00+8юз61084100 0.0 101397
07:00+8ююз61393100 0.0 1013240
10:00+9ююз91688100 0.0 1012333
13:00+10ююз11178899 0.0 1010359
16:00+10ююз11178964 0.0 1007290
19:00+9ююз10169596 0.0 1006184
22:00+8ююз7119890 0.0 1007113
16 мая, вс
вс1601:00+9зюз229479 0.0 100715
04:00+11с447998 0.0 100732
07:00+10с3377100 0.1 100813
10:00+11св1174100 0.2 100875
13:00+12ююв436298 0.0 1006152
16:00+10ююз3472100 0.0 1004104
19:00+10юз3370100 0.0 100525
22:00+10зюз2268100 0.0 100513
17 мая, пн
пн1701:00+10ссз44675 0.0 100420
04:00+10сз44670 0.0 100425
07:00+10сз44675 0.0 100530
10:00+14з12545 0.0 1005248
13:00+13ю675877 0.0 1005256
16:00+13юз81156100 0.0 1005241
19:00+12юз71258100 0.0 1005126
22:00+11зюз3361100 0.0 100515
18 мая, вт
вт1801:00+12зюз2262100 0.0 100511
04:00+12з2263100 0.0 100511
07:00+12з226379 0.0 100615
10:00+13ююз3460100 0.0 1006193
13:00+11ююз776990 0.0 1005257
16:00+13ююз812595 0.0 1004234
19:00+10ююз912784 0.0 1004121
22:00+10юз55801 0.0 100541
19 мая, ср
ср1901:00+10юз55810 0.0 100540
04:00+10юз44760 0.0 100528
07:00+11зюз43705 0.0 100629
10:00+11юз777370 0.0 1006166
13:00+11ююз10127863 0.0 1006159
16:00+11ююз11148263 0.1 1005169
19:00+10ююз8119867 1.5 1006111
22:00+9юз689563 2.1 100960